Time,TemperatureF,DewpointF,PressureIn,WindDirection,WindDirectionDegrees,WindSpeedMPH,WindSpeedGustMPH,Humidity,HourlyPrecipIn,Conditions,Clouds,dailyrainin,SolarRadiationWatts/m^2,SoftwareType,DateUTC
2013-03-29 00:12:00,53.0,53.0,-100.00,SE,144,4.0,6.0,100,0.00,,,-99.99,0.000000,,2013-03-29 07:12:00,
2013-03-29 00:22:00,53.0,53.0,-100.00,SE,144,4.0,6.0,100,0.00,,,-99.99,0.000000,,2013-03-29 07:22:00,
2013-03-29 00:32:00,53.0,53.0,-100.00,SE,144,4.0,6.0,100,0.00,,,-99.99,0.000000,,2013-03-29 07:32:00,
2013-03-29 00:42:00,53.0,53.0,-100.00,SE,144,4.0,6.0,100,0.00,,,-99.99,0.000000,,2013-03-29 07:42:00,
2013-03-29 00:51:00,53.0,53.0,-100.00,SE,146,1.0,8.0,100,0.00,,,-99.99,0.000000,,2013-03-29 07:51:00,
2013-03-29 01:12:00,53.0,53.0,-100.00,SE,146,1.0,8.0,100,0.00,,,-99.99,0.000000,,2013-03-29 08:12:00,
2013-03-29 01:22:00,53.0,53.0,-100.00,SE,146,1.0,8.0,100,0.00,,,-99.99,0.000000,,2013-03-29 08:22:00,
2013-03-29 01:32:00,53.0,53.0,-100.00,SE,146,1.0,8.0,100,0.00,,,-99.99,0.000000,,2013-03-29 08:32:00,
2013-03-29 01:42:00,53.0,53.0,-100.00,SE,146,1.0,8.0,100,0.00,,,-99.99,0.000000,,2013-03-29 08:42:00,
2013-03-29 01:51:00,53.0,53.0,-100.00,ENE,71,1.0,5.0,100,0.00,,,-99.99,0.000000,,2013-03-29 08:51:00,
2013-03-29 02:12:00,53.0,53.0,-100.00,ENE,71,1.0,5.0,100,0.00,,,-99.99,0.000000,,2013-03-29 09:12:00,
2013-03-29 02:22:00,53.0,53.0,-100.00,ENE,71,1.0,5.0,100,0.00,,,-99.99,0.000000,,2013-03-29 09:22:00,
2013-03-29 02:32:00,53.0,53.0,-100.00,ENE,71,1.0,5.0,100,0.00,,,-99.99,0.000000,,2013-03-29 09:32:00,
2013-03-29 02:42:00,53.0,53.0,-100.00,ENE,71,1.0,5.0,100,0.00,,,-99.99,0.000000,,2013-03-29 09:42:00,
2013-03-29 02:51:00,53.0,53.0,-100.00,ENE,61,3.0,5.0,100,0.00,,,-99.99,0.000000,,2013-03-29 09:51:00,
2013-03-29 03:22:00,53.0,53.0,-100.00,ENE,61,3.0,5.0,100,0.00,,,-99.99,0.000000,,2013-03-29 10:22:00,
2013-03-29 03:33:00,53.0,53.0,-100.00,ENE,61,3.0,5.0,100,0.00,,,-99.99,0.000000,,2013-03-29 10:33:00,
2013-03-29 03:42:00,53.0,53.0,-100.00,ENE,61,3.0,5.0,100,0.00,,,-99.99,0.000000,,2013-03-29 10:42:00,
2013-03-29 03:51:00,53.0,53.0,-100.00,ENE,73,4.0,5.0,100,0.00,,,-99.99,0.000000,,2013-03-29 10:51:00,
2013-03-29 04:12:00,53.0,53.0,-100.00,ENE,73,4.0,5.0,100,0.00,,,-99.99,0.000000,,2013-03-29 11:12:00,
2013-03-29 04:23:00,53.0,53.0,-100.00,ENE,73,4.0,5.0,100,0.00,,,-99.99,0.000000,,2013-03-29 11:23:00,
2013-03-29 04:32:00,53.0,53.0,-100.00,ENE,73,4.0,5.0,100,0.00,,,-99.99,0.000000,,2013-03-29 11:32:00,
2013-03-29 04:42:00,53.0,53.0,-100.00,ENE,73,4.0,5.0,100,0.00,,,-99.99,0.000000,,2013-03-29 11:42:00,
2013-03-29 04:51:00,52.0,52.0,-100.00,ENE,75,1.0,5.0,100,0.00,,,-99.99,0.000000,,2013-03-29 11:51:00,
2013-03-29 05:22:00,52.0,52.0,-100.00,ENE,75,1.0,5.0,100,0.00,,,-99.99,0.000000,,2013-03-29 12:22:00,
2013-03-29 05:32:00,52.0,52.0,-100.00,ENE,75,1.0,5.0,100,0.00,,,-99.99,0.000000,,2013-03-29 12:32:00,
2013-03-29 05:42:00,52.0,52.0,-100.00,ENE,75,1.0,5.0,100,0.00,,,-99.99,0.000000,,2013-03-29 12:42:00,
2013-03-29 05:51:00,51.0,51.0,-100.00,NE,54,5.0,6.0,100,0.00,,,-99.99,0.000000,,2013-03-29 12:51:00,
2013-03-29 06:22:00,51.0,51.0,-100.00,NE,54,5.0,6.0,100,0.00,,,-99.99,0.000000,,2013-03-29 13:22:00,
2013-03-29 06:32:00,51.0,51.0,-100.00,NE,54,5.0,6.0,100,0.00,,,-99.99,0.000000,,2013-03-29 13:32:00,
2013-03-29 06:42:00,51.0,51.0,-100.00,NE,54,5.0,6.0,100,0.00,,,-99.99,0.000000,,2013-03-29 13:42:00,
2013-03-29 06:51:00,51.0,51.0,-100.00,NW,304,4.0,8.0,100,0.00,,,-99.99,1.000000,,2013-03-29 13:51:00,
2013-03-29 07:22:00,51.0,51.0,-100.00,NW,304,4.0,8.0,100,0.00,,,-99.99,1.000000,,2013-03-29 14:22:00,
2013-03-29 07:32:00,51.0,51.0,-100.00,NW,304,4.0,8.0,100,0.00,,,-99.99,1.000000,,2013-03-29 14:32:00,
2013-03-29 07:42:00,51.0,51.0,-100.00,NW,304,4.0,8.0,100,0.00,,,-99.99,1.000000,,2013-03-29 14:42:00,
2013-03-29 07:51:00,51.0,51.0,-100.00,ENE,63,4.0,8.0,100,0.00,,,-99.99,27.000000,,2013-03-29 14:51:00,
2013-03-29 08:22:00,51.0,51.0,-100.00,ENE,63,4.0,8.0,100,0.00,,,-99.99,27.000000,,2013-03-29 15:22:00,
2013-03-29 08:33:00,51.0,51.0,-100.00,ENE,63,4.0,8.0,100,0.00,,,-99.99,27.000000,,2013-03-29 15:33:00,
2013-03-29 08:42:00,51.0,51.0,-100.00,ENE,63,4.0,8.0,100,0.00,,,-99.99,27.000000,,2013-03-29 15:42:00,
2013-03-29 08:51:00,55.0,54.0,-100.00,North,2,3.0,8.0,98,0.00,,,-99.99,143.000000,,2013-03-29 15:51:00,
2013-03-29 09:12:00,55.0,54.0,-100.00,North,2,3.0,8.0,98,0.00,,,-99.99,143.000000,,2013-03-29 16:12:00,
2013-03-29 09:23:00,55.0,54.0,-100.00,North,2,3.0,8.0,98,0.00,,,-99.99,143.000000,,2013-03-29 16:23:00,
2013-03-29 09:32:00,55.0,54.0,-100.00,North,2,3.0,8.0,98,0.00,,,-99.99,143.000000,,2013-03-29 16:32:00,
2013-03-29 09:42:00,55.0,54.0,-100.00,North,2,3.0,8.0,98,0.00,,,-99.99,143.000000,,2013-03-29 16:42:00,
2013-03-29 09:51:00,62.0,54.0,-100.00,WSW,248,7.0,11.0,75,0.00,,,-99.99,476.000000,,2013-03-29 16:51:00,
2013-03-29 10:22:00,62.0,54.0,-100.00,WSW,248,7.0,11.0,75,0.00,,,-99.99,476.000000,,2013-03-29 17:22:00,
2013-03-29 10:33:00,62.0,54.0,-100.00,WSW,248,7.0,11.0,75,0.00,,,-99.99,476.000000,,2013-03-29 17:33:00,
2013-03-29 10:42:00,62.0,54.0,-100.00,WSW,248,7.0,11.0,75,0.00,,,-99.99,476.000000,,2013-03-29 17:42:00,
2013-03-29 10:51:00,67.0,54.0,-100.00,WSW,254,8.0,13.0,64,0.00,,,0.00,662.000000,,2013-03-29 17:51:00,
2013-03-29 11:12:00,67.0,54.0,-100.00,WSW,254,8.0,13.0,64,0.00,,,0.00,662.000000,,2013-03-29 18:12:00,
2013-03-29 11:22:00,67.0,54.0,-100.00,WSW,254,8.0,13.0,64,0.00,,,0.00,662.000000,,2013-03-29 18:22:00,
2013-03-29 11:32:00,67.0,54.0,-100.00,WSW,254,8.0,13.0,64,0.00,,,0.00,662.000000,,2013-03-29 18:32:00,
2013-03-29 11:42:00,67.0,54.0,-100.00,WSW,254,8.0,13.0,64,0.00,,,0.00,662.000000,,2013-03-29 18:42:00,
2013-03-29 11:51:00,66.0,55.0,-100.00,WSW,251,11.0,16.0,67,0.00,,,0.00,757.000000,,2013-03-29 18:51:00,
2013-03-29 12:12:00,66.0,55.0,-100.00,WSW,251,11.0,16.0,67,0.00,,,0.00,757.000000,,2013-03-29 19:12:00,
2013-03-29 12:22:00,66.0,55.0,-100.00,WSW,251,11.0,16.0,67,0.00,,,0.00,757.000000,,2013-03-29 19:22:00,
2013-03-29 12:32:00,66.0,55.0,-100.00,WSW,251,11.0,16.0,67,0.00,,,0.00,757.000000,,2013-03-29 19:32:00,
2013-03-29 12:42:00,66.0,55.0,-100.00,WSW,251,11.0,16.0,67,0.00,,,0.00,757.000000,,2013-03-29 19:42:00,
2013-03-29 12:51:00,70.0,55.0,-100.00,WSW,244,11.0,15.0,60,0.00,,,0.00,846.000000,,2013-03-29 19:51:00,
2013-03-29 13:12:00,70.0,55.0,-100.00,WSW,244,11.0,15.0,60,0.00,,,0.00,846.000000,,2013-03-29 20:12:00,
2013-03-29 13:22:00,70.0,55.0,-100.00,WSW,244,11.0,15.0,60,0.00,,,0.00,846.000000,,2013-03-29 20:22:00,
2013-03-29 13:32:00,70.0,55.0,-100.00,WSW,244,11.0,15.0,60,0.00,,,0.00,846.000000,,2013-03-29 20:32:00,
2013-03-29 13:42:00,70.0,55.0,-100.00,WSW,244,11.0,15.0,60,0.00,,,0.00,846.000000,,2013-03-29 20:42:00,
2013-03-29 13:51:00,71.0,55.0,-100.00,WSW,255,10.0,17.0,57,0.00,,,0.00,771.000000,,2013-03-29 20:51:00,
2013-03-29 14:22:00,71.0,55.0,-100.00,WSW,255,10.0,17.0,57,0.00,,,0.00,771.000000,,2013-03-29 21:22:00,
2013-03-29 14:32:00,71.0,55.0,-100.00,WSW,255,10.0,17.0,57,0.00,,,0.00,771.000000,,2013-03-29 21:32:00,
2013-03-29 14:42:00,71.0,55.0,-100.00,WSW,255,10.0,17.0,57,0.00,,,0.00,771.000000,,2013-03-29 21:42:00,
2013-03-29 14:51:00,67.0,54.0,-100.00,WSW,250,14.0,17.0,62,0.00,,,0.00,620.000000,,2013-03-29 21:51:00,
2013-03-29 15:12:00,67.0,54.0,-100.00,WSW,250,14.0,17.0,62,0.00,,,0.00,620.000000,,2013-03-29 22:12:00,
2013-03-29 15:22:00,67.0,54.0,-100.00,WSW,250,14.0,17.0,62,0.00,,,0.00,620.000000,,2013-03-29 22:22:00,
2013-03-29 15:33:00,67.0,54.0,-100.00,WSW,250,14.0,17.0,62,0.00,,,0.00,620.000000,,2013-03-29 22:33:00,
2013-03-29 15:42:00,67.0,54.0,-100.00,WSW,250,14.0,17.0,62,0.00,,,0.00,620.000000,,2013-03-29 22:42:00,
2013-03-29 15:51:00,63.0,54.0,-100.00,WSW,256,9.0,18.0,72,0.00,,,0.00,454.000000,,2013-03-29 22:51:00,
2013-03-29 16:22:00,63.0,54.0,-100.00,WSW,256,9.0,18.0,72,0.00,,,0.00,454.000000,,2013-03-29 23:22:00,
2013-03-29 16:32:00,63.0,54.0,-100.00,WSW,256,9.0,18.0,72,0.00,,,0.00,454.000000,,2013-03-29 23:32:00,
2013-03-29 16:42:00,63.0,54.0,-100.00,WSW,256,9.0,18.0,72,0.00,,,0.00,454.000000,,2013-03-29 23:42:00,
2013-03-29 16:51:00,67.0,55.0,-100.00,WSW,247,5.0,9.0,65,0.00,,,0.00,347.000000,,2013-03-29 23:51:00,
2013-03-29 17:12:00,67.0,55.0,-100.00,WSW,247,5.0,9.0,65,0.00,,,0.00,347.000000,,2013-03-30 00:12:00,
2013-03-29 17:22:00,67.0,55.0,-100.00,WSW,247,5.0,9.0,65,0.00,,,0.00,347.000000,,2013-03-30 00:22:00,
2013-03-29 17:32:00,67.0,55.0,-100.00,WSW,247,5.0,9.0,65,0.00,,,0.00,347.000000,,2013-03-30 00:32:00,
2013-03-29 17:42:00,67.0,55.0,-100.00,WSW,247,5.0,9.0,65,0.00,,,0.00,347.000000,,2013-03-30 00:42:00,
2013-03-29 17:51:00,60.0,52.0,-100.00,WSW,248,16.0,20.0,76,0.00,,,0.00,186.000000,,2013-03-30 00:51:00,
2013-03-29 18:12:00,60.0,52.0,-100.00,WSW,248,16.0,20.0,76,0.00,,,0.00,186.000000,,2013-03-30 01:12:00,
2013-03-29 18:22:00,60.0,52.0,-100.00,WSW,248,16.0,20.0,76,0.00,,,0.00,186.000000,,2013-03-30 01:22:00,
2013-03-29 18:32:00,60.0,52.0,-100.00,WSW,248,16.0,20.0,76,0.00,,,0.00,186.000000,,2013-03-30 01:32:00,
2013-03-29 18:42:00,60.0,52.0,-100.00,WSW,248,16.0,20.0,76,0.00,,,0.00,186.000000,,2013-03-30 01:42:00,
2013-03-29 18:51:00,56.0,53.0,-100.00,WSW,250,9.0,17.0,90,0.00,,,0.00,76.000000,,2013-03-30 01:51:00,
2013-03-29 19:22:00,56.0,53.0,-100.00,WSW,250,9.0,17.0,90,0.00,,,0.00,76.000000,,2013-03-30 02:22:00,
2013-03-29 19:32:00,56.0,53.0,-100.00,WSW,250,9.0,17.0,90,0.00,,,0.00,76.000000,,2013-03-30 02:32:00,
2013-03-29 19:42:00,56.0,53.0,-100.00,WSW,250,9.0,17.0,90,0.00,,,0.00,76.000000,,2013-03-30 02:42:00,
2013-03-29 19:51:00,55.0,54.0,-100.00,South,176,5.0,12.0,97,0.00,,,0.00,3.000000,,2013-03-30 02:51:00,
2013-03-29 20:12:00,55.0,54.0,-100.00,South,176,5.0,12.0,97,0.00,,,0.00,3.000000,,2013-03-30 03:12:00,
2013-03-29 20:22:00,55.0,54.0,-100.00,South,176,5.0,12.0,97,0.00,,,0.00,3.000000,,2013-03-30 03:22:00,
2013-03-29 20:33:00,55.0,54.0,-100.00,South,176,5.0,12.0,97,0.00,,,0.00,3.000000,,2013-03-30 03:33:00,
2013-03-29 20:43:00,55.0,54.0,-100.00,South,176,5.0,12.0,97,0.00,,,0.00,3.000000,,2013-03-30 03:43:00,
2013-03-29 20:51:00,54.0,54.0,-100.00,ESE,123,2.0,7.0,99,0.00,,,0.00,0.000000,,2013-03-30 03:51:00,
2013-03-29 21:12:00,54.0,54.0,-100.00,ESE,123,2.0,7.0,99,0.00,,,0.00,0.000000,,2013-03-30 04:12:00,
2013-03-29 21:23:00,54.0,54.0,-100.00,ESE,123,2.0,7.0,99,0.00,,,0.00,0.000000,,2013-03-30 04:23:00,
2013-03-29 21:32:00,54.0,54.0,-100.00,ESE,123,2.0,7.0,99,0.00,,,0.00,0.000000,,2013-03-30 04:32:00,
2013-03-29 21:42:00,54.0,54.0,-100.00,ESE,123,2.0,7.0,99,0.00,,,0.00,0.000000,,2013-03-30 04:42:00,
2013-03-29 21:51:00,54.0,53.0,-100.00,SE,140,4.0,10.0,98,0.00,,,0.00,0.000000,,2013-03-30 04:51:00,
2013-03-29 22:12:00,54.0,53.0,-100.00,SE,140,4.0,10.0,98,0.00,,,0.00,0.000000,,2013-03-30 05:12:00,
2013-03-29 22:22:00,54.0,53.0,-100.00,SE,140,4.0,10.0,98,0.00,,,0.00,0.000000,,2013-03-30 05:22:00,
2013-03-29 22:32:00,54.0,53.0,-100.00,SE,140,4.0,10.0,98,0.00,,,0.00,0.000000,,2013-03-30 05:32:00,
2013-03-29 22:42:00,54.0,53.0,-100.00,SE,140,4.0,10.0,98,0.00,,,0.00,0.000000,,2013-03-30 05:42:00,
2013-03-29 22:51:00,54.0,54.0,-100.00,SW,217,1.0,5.0,99,0.00,,,0.00,0.000000,,2013-03-30 05:51:00,
2013-03-29 23:11:00,54.0,54.0,-100.00,SW,217,1.0,5.0,99,0.00,,,0.00,0.000000,,2013-03-30 06:11:00,
2013-03-29 23:22:00,54.0,54.0,-100.00,SW,217,1.0,5.0,99,0.00,,,0.00,0.000000,,2013-03-30 06:22:00,
2013-03-29 23:32:00,54.0,54.0,-100.00,SW,217,1.0,5.0,99,0.00,,,0.00,0.000000,,2013-03-30 06:32:00,
2013-03-29 23:42:00,54.0,54.0,-100.00,SW,217,1.0,5.0,99,0.00,,,0.00,0.000000,,2013-03-30 06:42:00,
2013-03-29 23:51:00,53.0,53.0,-100.00,West,260,6.0,11.0,99,0.00,,,0.00,0.000000,,2013-03-30 06:51:00,